| time (UTC) | temp C | wind direction | speed KPH | gust KPH | rain 1hr cm | rain 24hr cm | rain mn cm | humidity % | barometer mb |
| 20260510044922 | 4 | 254 | 3.2 | 8.0 | 0.00 | 0.66 | 0.00 | 89 | 1005.4 |
| 20260510044431 | 4 | 245 | 0.0 | 6.4 | 0.00 | 0.66 | 0.00 | 89 | 1005.4 |
| 20260510043925 | 4 | 210 | 1.6 | 9.7 | 0.00 | 0.66 | 0.00 | 89 | 1005.3 |
| 20260510043452 | 4 | 146 | 0.0 | 8.0 | 0.00 | 0.66 | 0.00 | 89 | 1004.9 |
| 20260510043429 | 4 | 239 | 1.6 | 9.7 | 0.00 | 0.66 | 0.00 | 88 | 1005.2 |
| 20260510042429 | 5 | 232 | 3.2 | 8.0 | 0.00 | 0.66 | 0.00 | 89 | 1005.1 |
| 20260510041947 | 5 | 117 | 0.0 | 4.8 | 0.00 | 0.66 | 0.00 | 90 | 1004.9 |
| 20260510041421 | 5 | 359 | 3.2 | 4.8 | 0.00 | 0.66 | 0.00 | 90 | 1004.8 |
| 20260510040924 | 5 | 203 | 3.2 | 4.8 | 0.00 | 0.66 | 0.00 | 90 | 1004.8 |
| 20260510040415 | 5 | 240 | 3.2 | 4.8 | 0.00 | 0.66 | 0.00 | 91 | 1004.7 |
| 20260510040218 | 5 | 149 | 1.6 | 4.8 | 0.00 | 0.66 | 0.66 | 91 | 1004.9 |
| 20260510035427 | 5 | 244 | 1.6 | 8.0 | 0.00 | 0.66 | 0.66 | 92 | 1004.8 |
| 20260510035157 | 5 | 169 | 1.6 | 8.0 | 0.00 | 0.66 | 0.66 | 91 | 1004.8 |
| 20260510034430 | 5 | 173 | 1.6 | 4.8 | 0.00 | 0.66 | 0.66 | 91 | 1004.8 |
| 20260510034221 | 5 | 149 | 0.0 | 3.2 | 0.00 | 0.66 | 0.66 | 91 | 1004.6 |
| 20260510033437 | 5 | 149 | 1.6 | 3.2 | 0.00 | 0.66 | 0.66 | 91 | 1004.6 |
| 20260510032951 | 5 | 192 | 0.0 | 3.2 | 0.00 | 0.66 | 0.66 | 90 | 1004.4 |
| 20260510032923 | 5 | 273 | 1.6 | 3.2 | 0.00 | 0.66 | 0.66 | 91 | 1004.6 |
| 20260510032154 | 6 | 237 | 0.0 | 4.8 | 0.00 | 0.66 | 0.66 | 90 | 1004.6 |
| 20260510031429 | 6 | 208 | 0.0 | 6.4 | 0.00 | 0.66 | 0.66 | 90 | 1004.4 |
| 20260510030917 | 6 | 159 | 4.8 | 6.4 | 0.00 | 0.66 | 0.66 | 89 | 1004.4 |
| 20260510030432 | 6 | 136 | 0.0 | 4.8 | 0.00 | 0.66 | 0.66 | 90 | 1004.6 |
| 20260510025925 | 6 | 77 | 1.6 | 6.4 | 0.00 | 0.66 | 0.66 | 89 | 1004.5 |
| 20260510025703 | 6 | 61 | 3.2 | 6.4 | 0.00 | 0.66 | 0.66 | 90 | 1004.6 |
| 20260510024932 | 6 | 161 | 0.0 | 3.2 | 0.00 | 0.66 | 0.66 | 91 | 1004.6 |
| 20260510024430 | 6 | 327 | 1.6 | 3.2 | 0.00 | 0.66 | 0.66 | 91 | 1004.5 |
| 20260510023925 | 6 | 315 | 1.6 | 3.2 | 0.00 | 0.66 | 0.66 | 90 | 1004.4 |
| 20260510023419 | 6 | 196 | 0.0 | 3.2 | 0.00 | 0.66 | 0.66 | 90 | 1004.5 |
| 20260510022931 | 7 | 219 | 0.0 | 4.8 | 0.00 | 0.66 | 0.66 | 90 | 1004.5 |
| 20260510022423 | 7 | 147 | 4.8 | 4.8 | 0.00 | 0.66 | 0.66 | 89 | 1004.4 |
| 20260510021919 | 7 | 168 | 1.6 | 4.8 | 0.00 | 0.66 | 0.66 | 90 | 1004.5 |
| 20260510021424 | 7 | 203 | 0.0 | 6.4 | 0.00 | 0.66 | 0.66 | 90 | 1004.4 |
| 20260510020917 | 7 | 273 | 0.0 | 6.4 | 0.00 | 0.66 | 0.66 | 90 | 1004.4 |
| 20260510020656 | 7 | 134 | 3.2 | 4.8 | 0.00 | 0.66 | 0.66 | 90 | 1004.3 |
| 20260510015923 | 7 | 122 | 0.0 | 6.4 | 0.00 | 0.66 | 0.66 | 90 | 1004.5 |
| 20260510015418 | 7 | 308 | 0.0 | 6.4 | 0.00 | 0.66 | 0.66 | 92 | 1004.2 |
| 20260510014917 | 7 | 228 | 0.0 | 6.4 | 0.00 | 0.66 | 0.66 | 91 | 1004.3 |
| 20260510014417 | 7 | 222 | 0.0 | 6.4 | 0.00 | 0.66 | 0.66 | 92 | 1004.3 |
| 20260510013919 | 7 | 184 | 0.0 | 4.8 | 0.00 | 0.66 | 0.66 | 93 | 1004.2 |
| 20260510013413 | 7 | 236 | 0.0 | 6.4 | 0.00 | 0.66 | 0.66 | 93 | 1004.3 |
| 20260510012913 | 7 | 294 | 0.0 | 6.4 | 0.00 | 0.66 | 0.66 | 94 | 1004.3 |
| 20260510012831 | 13 | 135 | 0.0 | 3.2 | 0.03 | 0.13 | 0.13 | 79 | 1000.4 |
| 20260510012416 | 7 | 342 | 0.0 | 6.4 | 0.00 | 0.66 | 0.66 | 94 | 1004.2 |
| 20260510012147 | 7 | 144 | 3.2 | 6.4 | 0.00 | 0.66 | 0.66 | 94 | 1004.1 |
| 20260510011505 | 13 | 253 | 0.0 | 3.2 | 0.05 | 0.13 | 0.13 | 79 | 1001.1 |
| 20260510011441 | 10 | 171 | 1.6 | 3.2 | 0.05 | 0.13 | 0.13 | 87 | 1001.6 |
| 20260510011407 | 7 | 210 | 1.6 | 6.4 | 0.00 | 0.66 | 0.66 | 95 | 1004.0 |
| 20260510011241 | 8 | 145 | 1.6 | 4.8 | 0.00 | 0.66 | 0.66 | 99 | 1002.6 |
| 20260510011158 | 8 | 229 | 0.0 | 6.4 | 0.00 | 0.66 | 0.66 | 99 | 1002.1 |
| 20260510011151 | 8 | 120 | 3.2 | 6.4 | 0.00 | 0.66 | 0.66 | 99 | 1001.9 |
| 20260510011003 | 8 | 216 | 1.6 | 3.2 | 0.43 | 0.66 | 0.66 | 99 | 1001.3 |
| 20260510010941 | 8 | 253 | 0.0 | 8.0 | 0.51 | 0.64 | 0.64 | 99 | 1001.5 |
| 20260510010932 | 8 | 241 | 6.4 | 8.0 | 0.51 | 0.64 | 0.64 | 99 | 1001.5 |
| 20260510010919 | 9 | 241 | 0.0 | 9.7 | 0.48 | 0.61 | 0.61 | 99 | 1001.3 |
| 20260510010907 | 7 | 307 | 3.2 | 8.0 | 0.00 | 0.66 | 0.66 | 95 | 1003.8 |
| 20260510010543 | 12 | 180 | 0.0 | 3.2 | 0.05 | 0.13 | 0.13 | 80 | 1000.6 |
| 20260510010409 | 7 | 231 | 3.2 | 8.0 | 0.00 | 0.66 | 0.66 | 94 | 1003.8 |
| 20260510010355 | 12 | 164 | 0.0 | 4.8 | 0.05 | 0.13 | 0.13 | 79 | 1001.2 |
| 20260510010340 | 11 | 209 | 0.0 | 4.8 | 0.05 | 0.13 | 0.13 | 84 | 1001.3 |
| 20260510010152 | 10 | 135 | 0.0 | 3.2 | 0.05 | 0.10 | 0.10 | 88 | 1001.7 |
| 20260510010141 | 10 | 328 | 0.0 | 3.2 | 0.05 | 0.10 | 0.10 | 88 | 1001.8 |
| 20260510010052 | 8 | 52 | 0.0 | 6.4 | 0.00 | 0.66 | 0.66 | 98 | 1003.0 |
| 20260510010042 | 8 | 85 | 0.0 | 4.8 | 0.00 | 0.66 | 0.66 | 99 | 1002.8 |
| 20260510010031 | 8 | 232 | 3.2 | 4.8 | 0.00 | 0.66 | 0.66 | 98 | 1002.8 |
| 20260510010021 | 8 | 215 | 0.0 | 4.8 | 0.00 | 0.66 | 0.66 | 99 | 1002.8 |
| 20260510005957 | 7 | 143 | 1.6 | 6.4 | 0.00 | 0.66 | 0.66 | 95 | 1003.6 |
| 20260510005829 | 8 | 177 | 1.6 | 4.8 | 0.00 | 0.66 | 0.66 | 99 | 1002.5 |
| 20260510005740 | 8 | 247 | 0.0 | 4.8 | 0.00 | 0.66 | 0.66 | 99 | 1002.5 |
| 20260510005720 | 8 | 313 | 0.0 | 4.8 | 0.00 | 0.66 | 0.66 | 99 | 1002.4 |
| 20260510005708 | 8 | 256 | 1.6 | 4.8 | 0.00 | 0.66 | 0.66 | 99 | 1002.2 |
| 20260510005657 | 8 | 176 | 1.6 | 4.8 | 0.00 | 0.66 | 0.66 | 99 | 1002.2 |
| 20260510005645 | 8 | 238 | 3.2 | 4.8 | 0.00 | 0.66 | 0.66 | 99 | 1001.9 |
| 20260510005506 | 7 | 260 | 1.6 | 6.4 | 0.00 | 0.66 | 0.66 | 96 | 1003.6 |
| 20260510005335 | 8 | 238 | 0.0 | 4.8 | 0.00 | 0.66 | 0.66 | 99 | 1001.9 |
| 20260510005322 | 8 | 224 | 0.0 | 1.6 | 0.00 | 0.66 | 0.66 | 99 | 1001.9 |
| 20260510005310 | 9 | 204 | 0.0 | 4.8 | 0.00 | 0.66 | 0.66 | 99 | 1001.6 |
| 20260510005246 | 8 | 252 | 0.0 | 4.8 | 0.00 | 0.66 | 0.66 | 99 | 1001.8 |
| 20260510005227 | 8 | 14 | 0.0 | 4.8 | 0.00 | 0.66 | 0.66 | 99 | 1001.8 |
| 20260510005211 | 8 | 149 | 0.0 | 4.8 | 0.05 | 0.66 | 0.66 | 99 | 1001.6 |
| 20260510005157 | 8 | 160 | 1.6 | 6.4 | 0.05 | 0.66 | 0.66 | 99 | 1001.7 |
| 20260510005142 | 8 | 315 | 0.0 | 6.4 | 0.05 | 0.66 | 0.66 | 99 | 1001.6 |
| 20260510005126 | 8 | 172 | 1.6 | 4.8 | 0.05 | 0.66 | 0.66 | 99 | 1001.5 |
| 20260510005116 | 8 | 55 | 0.0 | 6.4 | 0.10 | 0.66 | 0.66 | 99 | 1001.5 |
| 20260510005105 | 8 | 244 | 1.6 | 6.4 | 0.28 | 0.66 | 0.66 | 99 | 1001.6 |
| 20260510004929 | 8 | 111 | 3.2 | 3.2 | 0.48 | 0.66 | 0.66 | 99 | 1001.5 |
| 20260510004911 | 7 | 237 | 4.8 | 6.4 | 0.00 | 0.66 | 0.66 | 96 | 1003.5 |
| 20260510004853 | 8 | 245 | 1.6 | 6.4 | 0.48 | 0.64 | 0.64 | 99 | 1001.6 |
| 20260510004553 | 8 | 187 | 0.0 | 9.7 | 0.51 | 0.64 | 0.64 | 99 | 1001.7 |
| 20260510004417 | 8 | 190 | 0.0 | 6.4 | 0.00 | 0.66 | 0.66 | 97 | 1003.5 |
| 20260510004350 | 9 | 228 | 4.8 | 8.0 | 0.48 | 0.61 | 0.61 | 99 | 1001.4 |
| 20260510004335 | 9 | 95 | 0.0 | 9.7 | 0.48 | 0.61 | 0.61 | 99 | 1001.5 |
| 20260510004326 | 9 | 213 | 0.0 | 14.5 | 0.48 | 0.58 | 0.58 | 99 | 1001.6 |
| 20260510004256 | 10 | 139 | 6.4 | 14.5 | 0.43 | 0.56 | 0.56 | 99 | 1001.7 |
| 20260510004240 | 10 | 337 | 4.8 | 8.0 | 0.25 | 0.38 | 0.43 | 98 | 1001.0 |
| 20260510004208 | 8 | 195 | 3.2 | 6.4 | 0.00 | 0.66 | 0.66 | 97 | 1003.3 |
| 20260510004154 | 11 | 257 | 0.0 | 4.8 | 0.03 | 0.15 | 0.15 | 92 | 999.4 |
| 20260510004136 | 12 | 118 | 0.0 | 3.2 | 0.00 | 0.13 | 0.13 | 87 | 999.5 |
| 20260510004120 | 12 | 135 | 0.0 | 3.2 | 0.00 | 0.13 | 0.13 | 84 | 999.6 |
| 20260510004106 | 13 | 322 | 0.0 | 3.2 | 0.00 | 0.13 | 0.13 | 81 | 999.7 |
| 20260510004057 | 13 | 169 | 0.0 | 4.8 | 0.00 | 0.13 | 0.13 | 77 | 999.9 |
| 20260510003836 | 13 | 224 | 0.0 | 4.8 | 0.00 | 0.13 | 0.13 | 77 | 1000.0 |
| 20260510003818 | 13 | 215 | 0.0 | 4.8 | 0.00 | 0.13 | 0.13 | 77 | 1000.0 |
| 20260510003755 | 14 | 236 | 4.8 | 4.8 | 0.00 | 0.13 | 0.13 | 72 | 1000.1 |
| 20260510003747 | 8 | 253 | 1.6 | 6.4 | 0.00 | 0.66 | 0.66 | 96 | 1003.3 |
| 20260510001746 | 14 | 315 | 0.0 | 3.2 | 0.03 | 0.13 | 0.13 | 78 | 1000.1 |
| 20260509231237 | 8 | 235 | 0.0 | 4.8 | 0.00 | 0.66 | 0.66 | 99 | 1001.7 |
| 20260509230824 | 8 | 334 | 1.6 | 3.2 | 0.00 | 0.66 | 0.66 | 99 | 1001.7 |
| 20260509225823 | 12 | 304 | 0.0 | 3.2 | 0.05 | 0.13 | 0.13 | 78 | 1000.9 |
| 20260509225428 | 8 | 135 | 0.0 | 4.8 | 0.00 | 0.66 | 0.66 | 99 | 1001.7 |
| 20260509224808 | 8 | 252 | 3.2 | 4.8 | 0.00 | 0.66 | 0.66 | 99 | 1001.7 |
| 20260509211031 | 10 | 156 | 0.0 | 4.8 | 0.10 | 0.23 | 0.23 | 96 | 1000.3 |
| 20260509210821 | 10 | 243 | 1.6 | 4.8 | 0.05 | 0.18 | 0.18 | 94 | 999.7 |
| 20260509195233 | 11 | 191 | 0.0 | 3.2 | 0.05 | 0.13 | 0.13 | 86 | 1001.6 |
| 20260509192401 | 10 | 135 | 0.0 | 3.2 | 0.05 | 0.10 | 0.10 | 88 | 1002.1 |
| 20260509191859 | 10 | 224 | 0.0 | 3.2 | 0.03 | 0.10 | 0.10 | 88 | 1002.2 |
| 20260509191400 | 11 | 135 | 0.0 | 4.8 | 0.03 | 0.10 | 0.10 | 87 | 1002.3 |